Location: Catacaguana
(10.4120°N, 66.7591°W)
Time: 18:26:24
(UTC+00:00)

FengYun 1-2 T - Pass Details

Date: 30 January 2023
Orbit: 847 x 880 km, 98.7° (Epoch: 23 March)

Event Time Altitude Azimuth Distance (km) Brightness Sun altitude
Rises 09:30:08 0° 18° (NNE) 3,452 7.4 -19.7°
Reaches altitude 10° 09:32:32 10° 21° (NNE) 2,518 6.7 -19.1°
Maximum altitude 09:38:05 63° 102° (ESE) 973 4.8 -17.8°
Drops below altitude 10° 09:43:39 10° 183° (S) 2,530 6.8 -16.5°
Sets 09:46:04 0° 186° (S) 3,469 7.5 -15.9°
